www.pogodaiklimat.ru

Погода и климат >> Архив погоды >> Россия >> Якутия >> Нюрба


ПОГОДА в Нюрбе

  • Прогноз погоды в Нюрбе
  • Монитор погоды в Нюрбе
  • Климат города

АРХИВ ПОГОДЫ в Нюрбе

Время (UTC), дата Ветер
(напр.,м/с)
 
Видим.   Явления Облачность Т
(С)
Тd
(С)
f
(%)
Тe
(С)
Тes
(С)
Комфортность P
(гПа)
Po
(гПа)
Тmin
(С)
Tmax
(С)
R
(мм)
R24
(мм)
S
(см)
00 10.08 СВ 2 1000 м мгла 10/0
[Ci fib]
+17.7 +13.4 76 +18 +21 1004.7 990.8 +12.2
03 10.08 В 3 2000 м мгла 10/3 600 м
[Cu hum Ci fib]
+22.6 +14.3 59 +26 +30 жарко 1004.4 990.8
06 10.08 СВ 6 20 км 10/5 600 м
[Cb cap Ac und]
+21.2 +14.8 67 +24 +25 комфорт 1004.3 990.6
09 10.08 СВ 4 50 км 10/5 600 м
[Sc Ac und]
+21.9 +14.8 64 +25 +26 комфорт 1004.3 990.6
12 10.08 СВ 3 20 км 10/5 600 м
[Sc Ac und]
+20.1 +14.9 72 +23 +23 комфорт 1004.8 991.0 +22.6
15 10.08 СВ 3 20 км 10/6 300 м
[Cb cap Ac und]
+18.4 +15.0 81 +19 +19 1004.9 991.1
18 10.08 СВ 2 20 км 10/6 420 м
[Cb cap Ac und]
+17.3 +15.2 87 +18 +18 1005.1 991.1
21 10.08 СВ 2 4000 м мгла 10/5 600 м
[Sc Ac und]
+17.4 +16.0 91 +18 +18 1004.9 991.0
00 11.08 СВ 2 2000 м мгла 10/10 270 м
[St]
+18.8 +15.9 83 +20 +20 1004.8 991.0 +16.9
03 11.08 В 2 2000 м мгла 10/10 270 м
[St]
+19.4 +16.8 85 +22 +22 комфорт 1004.3 990.5
06 11.08 ЮЗ 2 10 км слабая морось 10/10 330 м
[St]
+19.0 +17.9 93 +21 +21 комфорт 1004.7 990.9
09 11.08 З 3 10 км {морось} 10/10 720 м
[Sc]
+21.2 +17.1 77 +25 +25 комфорт 1005.3 991.6
12 11.08 штиль 0 10 км 5/4 600 м
[Sc Ac trans]
+19.5 +17.9 90 +22 +22 комфорт 1006.6 992.7 +21.2
15 11.08 штиль 0 1000 м дымка 10/4 600 м
[Sc Ac und]
+13.4 +12.6 95 +13 +13 1007.8 993.6
18 11.08 штиль 0 1000 м дымка 10/4 600 м
[Sc Ac und]
+11.5 +11.0 97 +11 +11 1008.2 993.9
21 11.08 штиль 0 2000 м дымка 10/0
[Ac und]
+12.4 +11.7 95 +12 +12 1009.2 994.9
00 12.08 ЮЗ 4 2000 м дымка 10/0
[Ac und]
+18.6 +17.3 92 +19 +20 1009.7 995.8 +10.9
03 12.08 ЮЗ 4 2000 м мгла 10/0
[Ac und]
+22.3 +16.5 70 +27 +28 душно 1010.1 996.4
06 12.08 ЮЗ 3 4000 м 10/3 600 м
[Sc Ac trans Ci fib]
+24.6 +16.3 60 +28 +30 душно 1010.5 996.9
09 12.08 ЮЗ 2 4000 м мгла 8/0
[Ac trans Ci fib]
+26.1 +14.6 49 +29 +30 жарко 1010.7 997.2
12 12.08 СВ 1 4000 м мгла 8/0
[Ci fib]
+21.0 +16.7 76 +26 +26 душно 1011.6 997.7 +26.4
15 12.08 штиль 0 2000 м мгла 3/0
[Ci fib]
+15.7 +13.9 89 +15 +15 1012.9 998.8
18 12.08 штиль 0 2000 м мгла 3/0
[Ci fib]
+11.5 +10.7 95 +11 +11 1014.3 1000.0
21 12.08 штиль 0 2000 м дымка 3/0
[Ci fib]
+9.6 +9.0 96 +9 +9 1015.2 1000.8
00 13.08 штиль 0 10 км ясно +19.2 +15.3 78 +21 +26 комфорт 1016.0 1002.0 +9.4
03 13.08 СВ 2 20 км ясно +26.9 +13.8 44 +29 +38 жарко 1015.4 1001.8
06 13.08 В 3 50 км ясно +30.2 +9.9 28 +30 +37 жарко 1014.0 1000.5
09 13.08 СВ 4 50 км ясно +30.5 +11.2 30 +31 +32 жарко 1013.0 999.5
12 13.08 СВ 2 20 км ясно +25.2 +12.2 44 +27 +27 жарко 1013.2 999.5 +31.3
15 13.08 СВ 1 20 км ясно +17.9 +12.3 70 +19 +19 1013.3 999.3
18 13.08 СВ 1 20 км ясно +12.5 +10.7 89 +12 +12 1013.0 998.7
21 13.08 СВ 1 2000 м мгла ясно +12.1 +10.7 91 +12 +12 1012.4 998.1
00 14.08 СВ 2 2000 м 4/0
[Ci fib]
+20.2 +14.2 68 +23 +27 комфорт 1011.1 997.2 +11.3
03 14.08 В 4 4000 м мгла 4/0
[Ci fib]
+29.8 +15.6 42 +33 +38 душно 1008.9 995.5
06 14.08 ЮВ 5 50 км 10/4 600 м
[Cu med, cong Ci fib]
+32.9 +15.4 35 +35 +37 душно 1007.0 993.8
09 14.08 ЮВ 5 50 км 10/4 600 м
[Cb cap Ac trans Ci fib]
+32.7 +13.8 32 +34 +34 очень
жарко
1005.3 992.1
12 14.08 СВ 3
{30}
50 км гроза без осадков {ливн. осадки} 10/4 600 м
[Cb cap Ac trans Ci fib]
+20.8 +18.9 89 +25 +25 комфорт 1005.9 992.2 +33.6 8
15 14.08 В 2 50 км {гроза} 10/4 600 м
[Cb cap Ac trans Ci fib]
+19.3 +18.2 93 +22 +22 комфорт 1005.6 991.8
18 14.08 штиль 0 50 км в посл. час ливневой дождь {гроза} 10/5 600 м
[Cb cap Ac und]
+20.4 +18.0 86 +24 +24 комфорт 1005.1 991.4
21 14.08 ЮЗ 2 50 км гроза без осадков 10/6 750 м
[Cb cap Ac trans Ci fib]
+19.2 +17.9 92 +22 +22 комфорт 1005.9 992.1
00 15.08 З 3 4000 м мгла {гроза} 10/4 600 м
[Cb cap Ac trans Ci fib]
+21.8 +18.7 83 +27 +28 душно 1006.7 993.0 +18.5 0.1
03 15.08 З 3 2000 м мгла 10/4 600 м
[Sc Ac und]
+22.9 +17.7 73 +28 +30 душно 1008.7 995.0
06 15.08 ЮЗ 3 1000 м мгла 10/6 540 м
[Cb cap Ac und]
+20.3 +15.2 73 +23 +24 комфорт 1010.9 997.1
09 15.08 З 4 2000 м мгла 10/6 600 м
[Cb cap Ac und]
+20.7 +12.8 61 +23 +23 комфорт 1012.1 998.2
12 15.08 З 3 50 км 10/4 600 м
[Cb cap Ac trans Ci fib]
+16.5 +11.1 70 +16 +16 1014.4 1000.3 +23.9
15 15.08 ЮЗ 3 20 км в посл. час ливневой дождь 10/5 600 м
[Cb cap Ac und]
+13.4 +12.1 92 +12 +12 1015.4 1001.2
18 15.08 ЮЗ 3 20 км {ливн. осадки} 10/6 1000 м
[Sc Ac und]
+12.5 +10.7 89 +11 +11 1016.2 1001.9
21 15.08 З 2 20 км 10/8 930 м
[Sc Ac und]
+12.3 +9.8 85 +11 +11 1017.9 1003.5
00 16.08 З 2 50 км 10/8 800 м
[Sc Ac und]
+14.2 +9.9 75 +14 +14 1018.8 1004.5 +12.1
03 16.08 З 3 50 км 8/8 840 м
[Sc]
+14.3 +7.8 65 +13 +15 1020.0 1005.7
06 16.08 ЮЗ 3 50 км 5/5 600 м
[Sc]
+17.8 +7.3 50 +18 +21 1019.4 1005.3
09 16.08 З 2 50 км 5/3 600 м
[Sc Ci fib]
+18.4 +7.8 50 +19 +21 1018.8 1004.7
12 16.08 СЗ 1 50 км 8/0
[Ac trans Ci fib]
+16.0 +8.1 59 +17 +17 1019.3 1005.1 +18.9
15 16.08 С 1 50 км 10/0
[Ac trans Ci fib]
+8.6 +7.3 92 +8 +8 1019.7 1005.1
18 16.08 СВ 1 50 км 10/0
[Ac trans Ci fib]
+10.1 +8.0 87 +10 +10 1019.6 1005.1
21 16.08 СВ 1 50 км 10/5 600 м
[Sc Ac und]
+9.7 +7.8 88 +9 +9 1019.0 1004.5

 

Местоположение метеостанции Нюрба (Якутия, Россия): широта 63.28 долгота 118.30 высота над уровнем моря 119 м.

В архиве по умолчанию представлена погода в Нюрбе за последнюю неделю. Архивные данные за месяц целиком и за предыдущие месяцы, начиная с января 2011 года, Вы можете получить, выбрав интересующий диапазон дат из раскрывающегося списка и нажав кнопку "Ввод!".

Внимание! Время в таблицах - всемирное. Для получения местного времени необходимо прибавить поправку, которая в Нюрбе равна 9 ч.

Смотрите также архив погоды в соседних городах и на ближайших метеорологических станциях:

Погода в Верхневилюйске (Якутия, Россия) (97 км)
Погода в Чумпуруке (Якутия, Россия) (126 км)
Погода в Сунтаре (Якутия, Россия) (129 км)
Погода в Крестяхе (Якутия, Россия) (159 км)
Погода в Вилюйске (Якутия, Россия) (172 км)
Погода в Мирном (Якутия, Россия) (243 км)
Погода в Килиере (Якутия, Россия) (264 км)
Погода в Дорожном (Якутия, Россия) (265 км)
Погода в Чернышевском (Якутия, Россия) (298 км)
Погода в Эйке (Якутия, Россия) (309 км)

Пояснения к столбцам:

Ветер - указаны скорость ветра в м/с - средняя за 10 мин, порывы в срок и между сроками (в фигурных скобках) и направление, откуда дует ветер: С - северный, СВ - северо-восточный, В - восточный, ЮВ - юго-восточный, Ю - южный, ЮЗ - юго-западный, З - западный, СЗ - северо-западный.
Видимость - горизонтальная дальность видимости в метрах или километрах. При видимости от 1 до 10 км при отсутствии осадков обычно наблюдается дымка, при ухудшении видимости до 1 км и менее - туман. В сухую погоду видимость может ухудшаться дымом, пылью или мглою.
Явления - указаны атмосферные явления, наблюдавшиеся в срок или в последний час перед сроком; фигурными скобками обозначены явления, наблюдавшиеся между сроками (за 1-3 часа до срока); квадратными скобками обозначены град или гололедные отложения с указанием их диаметра в мм.
Облачность - указаны через наклонную черту общая и нижняя облачность в баллах и высота нижней границы облаков в метрах; квадратными скобками обозначены формы облаков: Ci - перистые, Cs - перисто-слоистые, Cc - перисто-кучевые, Ac - высококучевые, As - высокослоистые, Sc - слоисто-кучевые, Ns - слоисто-дождевые, Cu - кучевые, Cb - кучево-дождевые. Подробнее классификацию облаков см. в Атласе облаков (PDF).
T - Температура воздуха - температура, измеренная на высоте 2 м над землей.
Td - Температура точки росы - температура, при понижении до которой содержащийся в воздухе водяной пар достигнет насыщения.
f - Относительная влажность воздуха - влажноcть воздуха, измеренная на высоте 2 м над землей.
Te - Эффективная температура - температура, которую ощущает одетый по сезону человек в тени. Характеристика душности погоды. При расчете учитывается влияние влажности воздуха и скорости ветра на теплоощущения человека.
Tes - Эффективная температура на солнце - температура, которую ощущает человек, с поправкой на солнечный нагрев. Характеристика знойности погоды. Зависит от высоты солнца над горизонтом, облачности и скорости ветра. Ночью, в пасмурную погоду, а также при ветре 12 м/с и более поправка равна нулю.
P - Атмосферное давление - приведенное к уровню моря атмосферное давление.
Po - Атмосферное давление - измеренное на уровне метеостанции атмосферное давление.
Tmin - Минимальная температура - минимум температуры воздуха на высоте 2 м над землей.
Tmax - Максимальная температура - максимум температуры воздуха на высоте 2 м над землей.
R - Количество осадков - Количество выпавших осадков за период времени, мм. При наведении курсора мыши на число - период времени, за который выпало указанное количество осадков.
R24 - Количество осадков - Количество выпавших осадков за 24 часа, мм.
S - Снежный покров - Высота снежного покрова, см. При наведении курсора мыши на число - состояние снежного покрова и степень покрытия местности в баллах.